Orbital Elements at Epoch 2459200.5 (2020-Dec-17.0) TDB
Reference: JPL 11 (heliocentric ecliptic J2000)
Element | Value | Uncertainty (1-sigma) | Units |
e | .2027595655139623 | 5.11e-08 | |
a | 2.340705870390309 | 1.1579e-08 | au |
q | 1.866105365113989 | 1.1846e-07 | au |
i | 6.886866882654262 | 6.8627e-06 | deg |
node | 343.9957909246895 | 3.7756e-05 | deg |
peri | 54.13936960757201 | 4.2334e-05 | deg |
M | 305.1117033760912 | 1.6615e-05 | deg |
tp | 2459399.932505735502 (2021-Jul-04.43250574) | 6.084e-05 | TDB |
period | 1308.032977534727 3.58 | 9.7059e-06 2.657e-08 | d yr |
n | .2752224188403097 | 2.0422e-09 | deg/d |
Q | 2.815306375666629 | 1.3927e-08 | au |
|
| | Orbit Determination Parameters
Additional Information
|